SCP
0 0 0 0 -0 -0 0 0 0 -0 -0 0 0 0 0 0 0 0 0 0 0 0 0 0 0 0 0 0 0 0 0 0 0 0 0 0 0 0 0 0 0 -0 -0
0 0 0 0 -0 -0 0 0 0 -0 -0 0 0 0 0 0 0 0 0 0 0 0 0 0 0 0 0 0 0 0 0 0 0 0 0 0 0 0 0 0 0 0 -0
0 0 0 0 0 0 0 0 0 -0 -0 -0 0 0 0 0 0 0 0 0 0 0 0 -0 -0 -0 -0 0 0 0 0 0 0 0 0 0 0 0 0 0 0 0 0
0 0 0 0 0 0 0 0 0 0 -0 -0 -0 0 0 0 0 0 0 0 0 0 0 -0 -0 -0 -0 -0 0 0 0 0 0 0 0 0 0 0 0 0 0 0 0
0 0 0 0 0 0 0 0 0 0 0 -0 -0 0 0 0 0 0 0 0 0 0 0 -0 -0 -0 -0 -0 -0 -0 0 0 0 0 0 0 0 0 0 0 0 0 0
0 0 0 0 0 0 0 0 0 0 0 0 0 0 0 0 0 0 0 0 0 0 0 0 -0 -0 -0 -0 -0 -0 -0 0 0 0 -0 0 0 0 0 0 0 0 0
0 0 0 0 0 0 0 0 0 0 0 0 0 0 0 0 0 0 0 0 0 0 0 0 0 -0 -0 -0 -0 -0 -0 -0 -0 -0 -0 0 0 0 0 0 0 0 0
0 0 0 0 0 0 0 0 0 0 0 0 0 0 0 0 0 0 0 0 0 0 0 0 0 0 -0 -0 -0 -0 -0 -0 -0 -0 -0 0 0 0 0 0 0 0 0
0 0 0 0 0 0 0 0 0 0 0 0 0 0 0 0 0 0 0 0 0 0 0 0 0 0 -0 -0 -0 -0 -0 -0 -0 -0 -0 0 0 0 0 0 1 1 1
0 0 0 0 0 0 0 0 0 0 0 0 0 0 0 0 0 0 0 0 0 0 0 0 0 0 0 0 -0 -0 -0 -0 -0 -0 -0 0 0 0 0 0 1 1 1
0 0 0 0 0 0 0 0 0 0 0 0 0 0 0 0 0 0 0 0 0 0 0 0 0 0 0 0 -0 -0 -0 -0 -0 -0 -0 -0 -0 0 0 0 1 1 1
0 0 0 0 0 0 0 0 0 0 -0 -0 -0 -0 -0 0 0 0 0 0 0 0 0 0 0 0 0 0 0 -0 -0 -0 -0 -0 -0 -0 -0 0 0 0 1 1 1
0 0 0 0 0 -0 0 0 -0 -0 -0 -0 -0 -0 -0 -0 0 0 0 0 0 0 0 0 0 0 0 0 0 0 0 0 -0 -0 -0 -0 0 0 0 0 0 1 1
0 0 0 0 0 0 0 0 0 -0 -0 -0 -0 -0 -0 0 0 0 0 0 0 0 0 0 0 0 0 0 0 0 0 0 0 0 0 0 0 0 0 0 0 0 0
0 0 0 0 0 0 0 0 0 0 -0 -0 -0 -0 -0 0 0 0 0 0 0 0 0 0 0 0 0 0 0 0 0 0 0 0 0 0 0 0 0 0 0 0 0
1 1 1 1 0 0 0 0 0 0 0 0 0 0 0 0 0 0 0 0 0 0 0 0 0 0 0 0 0 0 0 0 0 0 0 0 0 0 0 0 0 0 0
1 1 1 1 1 0 0 0 0 0 0 0 0 0 0 0 0 0 0 0 0 0 0 0 0 0 0 0 0 0 0 0 0 0 0 0 0 0 0 0 0 0 0
1 1 1 1 1 1 0 0 0 0 0 0 0 0 0 0 0 0 0 0 0 0 0 0 0 0 0 0 0 0 0 0 0 0 0 0 0 0 0 0 0 0 0
2 2 2 1 1 1 0 0 0 0 0 0 0 0 0 0 0 0 0 0 0 0 0 0 0 0 0 0 0 0 0 0 0 0 0 0 0 0 0 0 0 0 0
2 2 2 2 1 1 0 0 0 0 0 0 0 0 0 0 0 0 0 0 0 0 0 0 0 0 0 0 0 0 0 0 0 0 0 0 0 0 0 0 0 0 0
2 2 2 2 1 1 1 1 0 0 0 0 0 0 0 0 0 0 0 0 0 0 0 0 0 0 0 0 0 0 0 0 0 0 0 0 0 0 0 0 0 0 0
2 2 2 2 1 1 1 1 1 0 0 0 0 0 0 0 0 0 0 0 0 0 0 0 0 0 0 0 0 0 0 0 0 0 0 0 0 0 0 0 0 0 0
2 2 2 1 1 1 1 1 1 1 1 1 0 0 0 0 1 1 0 0 0 0 0 0 0 0 0 0 0 0 0 0 0 0 0 0 0 0 0 0 0 0 0
2 2 1 1 1 1 1 1 1 1 1 1 0 0 0 1 1 1 1 0 0 0 0 0 0 0 0 0 0 0 0 0 0 0 0 0 0 0 0 0 0 0 0
2 1 1 1 1 0 0 0 0 1 1 1 1 1 1 1 1 1 1 1 0 0 0 0 0 0 0 0 0 0 0 0 0 0 0 0 0 0 0 0 0 0 0
1 1 1 1 0 0 0 0 0 1 1 1 1 1 1 1 1 1 1 1 0 0 0 0 0 0 0 0 0 0 0 0 0 0 0 0 0 0 0 0 0 0 0
Wind_Speed
5 5 12 15 15 14 14 14 13 13 15 16 17 18 18 18 18 17 16 15 15 15 14 14 14 14 14 14 14 15 15 15 14 14 13 14 13 11 12 12 11 8 12
9 7 13 14 15 15 15 14 13 12 13 15 15 16 17 17 17 16 15 15 14 13 13 13 13 13 14 14 14 15 15 14 14 13 13 11 10 7 8 11 10 7 10
11 8 12 13 14 14 15 14 13 12 12 13 14 14 15 16 15 15 15 14 14 13 12 12 11 12 13 13 13 13 14 13 12 12 11 6 5 5 7 12 11 10 9
11 7 9 15 14 14 14 13 12 12 11 11 12 12 13 13 13 13 13 13 13 12 12 11 11 12 12 12 11 10 11 11 10 10 5 4 4 8 11 11 9 9 9
10 7 10 15 15 14 14 12 11 11 12 11 10 10 11 11 11 11 11 11 11 11 11 11 10 10 10 10 9 7 7 8 8 5 2 4 4 9 11 11 9 8 8
11 8 10 15 15 14 14 13 12 12 12 11 10 9 9 10 10 10 10 10 9 9 10 10 10 10 9 9 8 6 5 4 3 1 2 4 4 9 11 11 9 8 7
11 8 10 15 15 14 13 13 12 12 12 12 11 10 9 8 8 9 10 9 9 9 9 9 9 9 9 8 7 6 5 4 2 1 2 4 6 10 11 11 10 9 8
13 10 10 15 15 15 14 13 12 11 11 11 11 10 9 8 7 7 9 9 8 8 8 9 9 8 8 8 8 7 6 6 4 1 2 4 9 12 12 12 12 11 9
12 10 7 8 11 14 15 14 13 11 10 10 9 8 8 7 6 6 6 7 8 8 7 7 8 8 8 8 8 8 8 8 4 1 1 2 10 13 13 12 14 13 11
10 9 8 6 6 7 9 14 14 12 10 10 9 9 8 7 7 7 5 6 7 7 8 8 9 10 10 9 9 9 9 7 4 3 2 2 7 12 14 13 14 14 13
10 8 8 7 6 6 7 11 12 13 11 10 8 10 7 4 4 5 7 8 8 9 9 9 10 10 10 10 11 10 8 3 3 3 3 6 7 11 14 14 15 15 15
11 9 8 9 8 7 7 6 5 5 6 5 4 5 4 4 4 6 8 11 11 10 9 10 10 9 7 3 6 9 3 5 5 4 4 10 11 12 14 15 16 17 16
12 11 9 9 8 7 5 5 3 3 3 4 5 5 4 4 3 4 3 4 5 6 4 4 5 3 3 3 3 4 5 5 4 4 6 13 13 16 17 16 16 18 18
12 12 11 10 8 8 6 6 5 4 3 4 5 6 4 3 3 3 3 3 3 2 3 3 3 4 4 5 5 6 6 5 5 4 6 15 16 18 19 19 17 18 18
10 10 10 10 10 8 7 5 5 5 5 5 4 5 5 3 3 4 3 3 3 3 3 4 4 4 4 5 4 5 6 6 6 6 5 15 17 18 19 19 20 20 21
9 8 7 9 9 7 5 5 7 7 6 5 4 5 5 4 3 3 3 3 3 4 4 4 4 3 3 3 3 2 3 4 5 5 5 8 15 18 20 21 21 21 22
11 9 8 9 8 6 5 5 5 5 6 5 4 4 5 4 4 3 3 3 3 3 4 2 2 1 1 2 3 2 2 2 3 4 4 4 6 13 18 20 19 19 21
11 11 9 8 7 6 5 4 3 3 4 3 3 4 5 5 5 4 3 3 2 3 3 2 2 1 2 2 2 2 2 2 3 4 4 4 4 5 11 18 18 17 20
11 11 9 7 7 6 5 3 3 3 4 3 3 3 4 5 5 4 3 3 3 3 2 2 2 2 2 2 2 2 2 2 3 3 4 5 5 5 5 10 15 16 20
10 10 9 8 7 6 4 2 1 2 3 3 4 4 5 4 4 4 3 3 3 3 2 2 2 2 2 2 1 1 2 2 2 2 4 4 5 5 4 5 5 8 17
9 10 9 8 6 4 2 2 2 2 2 2 3 4 4 4 3 4 3 3 4 4 4 4 3 2 2 1 0 2 2 2 2 2 3 4 4 4 3 2 3 3 5
8 7 7 7 6 4 2 2 2 2 3 3 2 4 5 5 4 4 5 4 4 3 4 4 3 2 2 2 2 1 2 3 3 2 3 3 4 3 3 3 1 1 3
8 6 5 5 4 2 1 1 1 1 1 1 2 3 5 6 5 4 5 4 3 3 4 4 4 4 2 2 3 3 2 3 3 3 3 3 4 2 3 3 3 2 2
10 8 6 5 6 3 2 2 1 2 3 4 3 3 3 4 4 4 5 4 3 3 3 4 4 3 3 3 2 3 3 3 2 2 3 3 4 3 3 3 3 3 2
8 8 7 6 6 4 2 3 2 2 2 2 2 2 1 1 2 3 3 3 3 2 2 3 3 3 3 4 3 2 1 1 1 2 2 3 3 3 3 3 2 2 2
7 6 5 5 4 2 3 3 2 2 2 2 2 2 2 3 3 4 3 2 2 1 1 3 3 4 4 3 2 2 3 2 2 2 2 1 2 2 1 1 2 2 2
Wind_Direction
139 151 132 122 123 126 124 122 120 117 115 113 112 110 109 109 109 107 107 107 105 105 103 101 101 107 112 111 108 106 106 108 108 110 109 107 106 107 103 98 91 86 90
142 143 131 126 127 129 129 129 130 126 122 121 119 117 115 112 111 111 112 111 108 106 104 101 104 111 116 115 115 115 114 114 112 110 105 100 98 96 106 108 99 97 93
133 135 131 128 129 131 133 134 136 136 132 128 127 128 125 122 121 121 121 120 118 114 111 108 109 112 118 119 121 123 122 122 121 117 108 94 79 79 123 120 115 108 100
129 128 132 129 129 130 133 137 140 139 137 137 135 134 132 131 130 128 126 125 123 121 119 120 122 120 121 121 122 125 130 130 128 124 115 126 111 106 122 126 126 122 113
128 129 137 131 129 127 127 129 131 137 140 140 140 139 136 135 135 132 131 131 128 126 128 131 133 132 129 128 127 127 132 137 142 138 139 150 132 131 136 138 141 138 127
131 130 138 134 130 128 127 126 124 126 131 135 139 145 146 145 144 139 137 139 142 139 138 142 146 148 145 141 141 146 155 164 158 129 154 163 155 151 149 149 158 158 143
137 137 141 142 140 136 132 129 126 125 126 128 129 133 137 142 149 152 152 151 154 157 156 156 158 161 162 162 163 167 183 206 217 224 205 172 169 166 163 161 167 168 160
142 141 147 147 142 142 139 136 134 131 131 130 127 127 130 133 135 147 157 160 166 172 175 178 179 176 177 180 182 187 200 221 238 230 212 183 179 176 175 171 168 170 172
138 139 138 143 148 148 145 143 142 140 139 137 135 136 139 141 140 144 156 167 175 184 192 198 201 197 198 198 199 205 215 229 247 256 147 168 188 184 184 179 172 174 179
141 144 145 145 143 145 148 149 150 151 153 153 155 158 162 165 166 171 179 185 187 192 200 209 216 218 214 212 214 220 228 238 250 248 202 201 206 200 193 188 183 182 184
153 156 153 152 152 155 160 163 158 161 167 169 173 177 175 189 194 192 197 204 204 204 206 208 215 221 223 222 224 228 234 228 237 249 227 221 223 219 208 198 192 189 189
164 166 166 166 168 169 172 159 162 165 174 177 189 194 188 203 223 219 217 216 211 213 217 217 216 218 222 225 234 234 224 221 225 235 238 238 229 225 218 209 199 192 192
169 170 177 175 175 180 173 162 172 173 178 193 204 213 209 215 224 227 211 217 217 224 228 240 231 223 214 217 227 228 221 219 226 231 236 239 233 231 230 224 210 197 193
174 180 180 178 176 185 176 175 178 177 187 205 214 214 202 198 199 201 199 197 206 220 229 236 228 232 230 233 234 235 227 221 228 228 237 242 239 238 238 229 220 207 197
166 174 174 171 174 177 178 182 184 190 197 204 207 210 194 186 192 194 198 200 210 212 217 231 227 231 235 239 238 226 223 226 236 236 235 240 238 236 236 231 226 218 208
157 162 163 161 166 169 175 179 189 195 195 192 197 208 193 180 169 171 179 195 205 202 199 209 216 216 232 241 233 215 220 230 243 245 236 244 244 240 240 244 241 228 216
159 165 168 162 160 161 166 168 171 178 177 186 189 194 186 183 168 170 173 186 188 179 175 185 202 206 215 239 258 268 262 258 263 266 261 248 253 256 254 250 247 237 222
164 170 174 167 159 159 167 166 158 170 174 187 184 186 192 190 179 177 184 192 169 144 145 164 188 225 261 261 271 292 296 289 284 279 277 269 256 254 259 255 249 238 223
173 172 172 164 161 166 178 183 171 158 170 186 193 201 206 197 181 178 193 192 160 145 158 181 196 199 232 250 251 258 276 291 300 302 302 296 282 263 246 253 253 235 220
172 166 161 158 161 164 171 172 175 168 179 185 191 208 213 212 195 184 193 181 159 156 177 200 210 205 206 218 243 256 280 311 336 335 323 312 303 293 263 239 245 235 221
161 157 155 153 154 149 159 166 181 199 197 190 198 215 218 224 210 176 165 163 164 169 187 201 199 212 227 198 108 311 311 321 326 323 328 325 323 327 320 266 223 215 216
161 157 151 151 151 158 179 184 194 201 200 191 197 216 216 211 202 181 175 178 172 170 188 203 192 193 237 193 178 221 314 322 298 313 335 334 326 336 6 14 25 201 201
162 160 160 154 130 104 328 277 217 147 136 196 217 220 220 208 201 193 191 179 174 175 198 214 205 198 228 241 203 170 192 256 290 313 325 332 332 350 15 19 28 41 110
167 155 145 134 114 95 33 310 245 200 200 213 212 223 233 209 192 190 186 175 170 182 209 223 215 201 189 228 236 212 198 193 202 300 319 326 341 1 15 19 19 28 68
145 143 138 137 131 129 169 239 240 211 211 210 193 198 194 132 111 115 150 157 157 166 202 237 243 213 194 198 206 202 195 208 174 182 280 313 337 348 7 16 3 13 53
116 115 113 113 111 147 203 233 194 142 143 132 141 137 97 81 67 64 83 104 134 147 202 241 249 229 215 208 199 189 174 174 196 181 194 258 299 310 349 20 350 345 40